TimePDT,TemperatureF,Dew PointF,Humidity,Sea Level PressureIn,VisibilityMPH,Wind Direction,Wind SpeedMPH,Gust SpeedMPH,PrecipitationIn,Events,Conditions,WindDirDegrees,DateUTC
12:56 AM,52.0,52.0,100,30.19,10.0,Calm,Calm,-,N/A,,Clear,0,2013-04-22 07:56:00
1:56 AM,50.9,50.9,100,30.19,10.0,Calm,Calm,-,N/A,,Clear,0,2013-04-22 08:56:00
2:56 AM,50.9,50.9,100,30.17,10.0,Calm,Calm,-,N/A,,Clear,0,2013-04-22 09:56:00
3:56 AM,59.9,45.9,60,30.15,10.0,NNE,8.1,-,N/A,,Clear,30,2013-04-22 10:56:00
4:56 AM,59.0,45.9,62,30.17,10.0,Variable,5.8,-,N/A,,Clear,0,2013-04-22 11:56:00
5:56 AM,52.0,46.9,83,30.16,10.0,Variable,3.5,-,N/A,,Clear,0,2013-04-22 12:56:00
6:56 AM,57.9,43.0,58,30.17,10.0,Variable,3.5,-,N/A,,Clear,0,2013-04-22 13:56:00
7:56 AM,59.0,43.9,57,30.17,10.0,Calm,Calm,-,N/A,,Clear,0,2013-04-22 14:56:00
8:56 AM,61.9,46.9,58,30.17,10.0,Variable,3.5,-,N/A,,Clear,0,2013-04-22 15:56:00
9:56 AM,64.9,43.0,45,30.16,10.0,Calm,Calm,-,N/A,,Clear,0,2013-04-22 16:56:00
10:56 AM,70.9,32.9,25,30.14,10.0,North,8.1,-,N/A,,Clear,10,2013-04-22 17:56:00
11:56 AM,72.9,27.1,18,30.13,10.0,Variable,5.8,-,N/A,,Clear,0,2013-04-22 18:56:00
12:56 PM,75.9,25.2,15,30.11,10.0,North,8.1,-,N/A,,Clear,360,2013-04-22 19:56:00
1:56 PM,77.0,26.1,15,30.10,10.0,North,8.1,-,N/A,,Clear,10,2013-04-22 20:56:00
2:56 PM,79.0,14.0,9,30.09,10.0,North,9.2,-,N/A,,Clear,10,2013-04-22 21:56:00
3:56 PM,79.0,11.1,8,30.08,10.0,NE,8.1,-,N/A,,Clear,40,2013-04-22 22:56:00
4:56 PM,79.0,17.1,10,30.06,10.0,Variable,4.6,-,N/A,,Clear,0,2013-04-22 23:56:00
5:56 PM,75.9,34.0,22,30.06,10.0,NNW,11.5,-,N/A,,Clear,330,2013-04-23 00:56:00
6:56 PM,74.8,32.9,22,30.06,10.0,NNW,10.4,-,N/A,,Clear,340,2013-04-23 01:56:00
7:56 PM,70.9,36.9,29,30.08,10.0,North,11.5,-,N/A,,Clear,360,2013-04-23 02:56:00
8:56 PM,68.9,37.9,32,30.10,10.0,NNE,10.4,-,N/A,,Clear,20,2013-04-23 03:56:00
9:56 PM,68.0,37.9,33,30.12,10.0,NNE,15.0,-,N/A,,Clear,30,2013-04-23 04:56:00
10:56 PM,66.9,34.9,31,30.13,10.0,NNE,12.7,-,N/A,,Clear,30,2013-04-23 05:56:00
11:56 PM,65.8,32.0,28,30.13,10.0,NNE,11.5,-,N/A,,Clear,30,2013-04-23 06:56:00